Flag for U.S.A. Weather past 2 weeks in Sunrise Manor, Nevada, U.S.A.

39 °F


Feels Like: 34 °F
Forecast: 30 / 49 °F
Wind: 7 mph from Northeast

Location: Nellis Air Force Base

Current Time: Nov 28, 2015 at 12:49:37 AM

Latest Report: Nov 27, 2015 at 11:58 PM

Visibility: 10 mi

Pressure: 30.11 "Hg (28.12 "Hg at 555m altitude)

Humidity: 45%

Dew point: 20 °F

Location of Sunrise ManorLocation

Historic Weather in Sunrise Manor — Graph


Sunrise Manor temperature yesterday

Maximum temperature yesterday: 52 °F (at 1:58 PM)
Minimum temperature yesterday: 38 °F (at 3:58 AM)
Average temperature yesterday: 44 °F

Past Weeks' High & Low Weather Summary

High74 °F (Nov 20, 3:58 PM)67% (Nov 15, 6:58 PM)30.27 "Hg (Nov 15, 6:58 PM)
Low35 °F (Nov 23, 3:58 AM)8% (Nov 21, 12:58 PM)29.56 "Hg (Nov 16, 3:58 AM)
Average52 °F30%29.99 "Hg
* Reported Nov 12 11:58 PM — Nov 27 11:58 PM, Sunrise Manor, Weather by CustomWeather, © 2015

Note: Actual official high and low records may vary slightly from our data, if they occured in-between our weather recording intervals... More about our weather records


Sunrise Manor weather history for previous 24 hours

Time TempWeatherWind HumidityBarometerVisibility
11:58 PM
Fri, Nov 27
39 °FClear.7 mph45%30.11 "Hg10 mi
9:58 PM42 °FClear.12 mph41%30.10 "Hg10 mi
8:58 PM42 °FPassing clouds.12 mph41%30.08 "Hg10 mi
7:58 PM42 °FPassing clouds.8 mph39%30.07 "Hg10 mi
6:58 PM44 °FPassing clouds.7 mph37%30.06 "Hg10 mi
5:58 PM44 °FPassing clouds.7 mph35%30.04 "Hg10 mi
4:58 PM49 °FClear.3 mph29%30.03 "Hg10 mi
3:58 PM50 °FSunny.5 mph27%30.01 "Hg10 mi
2:58 PM51 °FSunny.6 mph27%30.01 "Hg10 mi
1:58 PM52 °FSunny.2 mph26%30.01 "Hg10 mi
12:58 PM51 °FSunny.2 mph26%30.02 "Hg10 mi
11:58 AM52 °FPassing clouds.6 mph25%30.03 "Hg10 mi
10:58 AM47 °FOvercast.2 mph30%30.06 "Hg10 mi
9:58 AM46 °FPassing clouds.3 mph30%30.09 "Hg10 mi
8:58 AM44 °FOvercast.6 mph33%30.08 "Hg10 mi
7:58 AM38 °FSunny.5 mph41%30.07 "Hg10 mi
6:58 AM39 °FSunny.6 mph39%30.06 "Hg10 mi
5:58 AM39 °FPassing clouds.10 mph39%30.05 "Hg10 mi
4:58 AM40 °FPassing clouds.7 mph37%30.04 "Hg10 mi
3:58 AM38 °FPassing clouds.5 mph39%30.03 "Hg10 mi
2:58 AM39 °FPassing clouds.6 mph36%30.02 "Hg10 mi
1:58 AM41 °FPassing clouds.3 mph33%30.03 "Hg10 mi
12:58 AM41 °FClear.3 mph32%30.02 "Hg10 mi
Weather by CustomWeather, © 2015

See weather overviewHow to use our weather pages